DAL8485 KSAN-KJFK

Flight info

Callsign DAL8485
Flight time 4h 30m
Altitude 39000
Route ZZOOO4 MTBAL LANCY DRK INW J44 RSK PUB KD54Y KK57E SPI WWODD RINTE KLYNE Q29 WWSHR JHW Q476 WLKES PUCKY1
Aircraft B772/H-SDE2E3FGHIJ5LORVWXY/LB1D1

Departure

Time 2026-05-07 20:55
Airport San Diego International Airport (KSAN)

Arrival

Time 2026-05-08 01:25
Airport John F. Kennedy International Airport (KJFK)
Time Latitude Longitude Altitude Speed Heading
2026-05-07 20:33 32.73257 -117.20715 25 ft 0 kts 192°
2026-05-07 20:40 32.73260 -117.20714 25 ft 2 kts 192°
2026-05-07 20:41 32.73275 -117.20711 24 ft 2 kts 192°
2026-05-07 20:41 32.73289 -117.20707 24 ft 2 kts 192°
2026-05-07 20:41 32.73304 -117.20703 23 ft 2 kts 192°
2026-05-07 20:41 32.73318 -117.20699 24 ft 2 kts 192°
2026-05-07 20:42 32.73328 -117.20697 24 ft 2 kts 191°
2026-05-07 20:42 32.73342 -117.20694 25 ft 2 kts 188°
2026-05-07 20:42 32.73357 -117.20692 25 ft 2 kts 186°
2026-05-07 20:42 32.73372 -117.20689 26 ft 2 kts 184°
2026-05-07 20:43 32.73387 -117.20689 26 ft 2 kts 181°
2026-05-07 20:43 32.73398 -117.20689 26 ft 0 kts 180°
2026-05-07 20:43 32.73399 -117.20689 26 ft 0 kts 180°
2026-05-07 20:48 32.73396 -117.20689 26 ft 2 kts 180°
2026-05-07 20:48 32.73373 -117.20686 25 ft 2 kts 166°
2026-05-07 20:49 32.73354 -117.20661 25 ft 11 kts 104°
2026-05-07 20:49 32.73409 -117.20563 28 ft 15 kts 21°
2026-05-07 20:49 32.73504 -117.20521 28 ft 13 kts 50°
2026-05-07 20:49 32.73567 -117.20434 28 ft 14 kts 49°
2026-05-07 20:50 32.73578 -117.20316 28 ft 15 kts 105°
2026-05-07 20:50 32.73544 -117.20169 28 ft 22 kts 105°
2026-05-07 20:50 32.73500 -117.19985 28 ft 23 kts 106°
2026-05-07 20:50 32.73458 -117.19813 28 ft 22 kts 106°
2026-05-07 20:51 32.73414 -117.19637 30 ft 22 kts 107°
2026-05-07 20:51 32.73371 -117.19456 31 ft 22 kts 107°
2026-05-07 20:51 32.73326 -117.19273 31 ft 23 kts 106°
2026-05-07 20:51 32.73278 -117.19076 30 ft 25 kts 107°
2026-05-07 20:52 32.73228 -117.18871 29 ft 26 kts 104°
2026-05-07 20:52 32.73179 -117.18655 29 ft 27 kts 105°
2026-05-07 20:52 32.73128 -117.18445 28 ft 25 kts 106°
2026-05-07 20:52 32.73076 -117.18236 29 ft 26 kts 107°
2026-05-07 20:53 32.73024 -117.18022 29 ft 27 kts 107°
2026-05-07 20:53 32.72970 -117.17806 32 ft 27 kts 106°
2026-05-07 20:53 32.72956 -117.17669 34 ft 13 kts 79°
2026-05-07 20:53 32.72980 -117.17560 35 ft 9 kts 69°
2026-05-07 20:54 32.73003 -117.17555 35 ft 3 kts 312°
2026-05-07 20:54 32.73019 -117.17583 35 ft 4 kts 295°
2026-05-07 20:54 32.73092 -117.17877 32 ft 82 kts 287°
2026-05-07 20:54 32.73324 -117.18837 76 ft 154 kts 284°
2026-05-07 20:55 32.73637 -117.20116 793 ft 168 kts 284°
2026-05-07 20:55 32.73938 -117.21410 1767 ft 159 kts 284°
2026-05-07 20:55 32.74255 -117.22729 2110 ft 179 kts 285°
2026-05-07 20:55 32.74607 -117.24179 2655 ft 186 kts 286°
2026-05-07 20:56 32.74966 -117.25663 3219 ft 191 kts 287°
2026-05-07 20:56 32.75348 -117.27232 3722 ft 209 kts 287°
2026-05-07 20:56 32.75771 -117.28970 4209 ft 226 kts 287°
2026-05-07 20:56 32.76217 -117.30800 4708 ft 242 kts 287°
2026-05-07 20:57 32.76615 -117.32759 5476 ft 247 kts 275°
2026-05-07 20:57 32.76340 -117.34763 6199 ft 255 kts 247°
2026-05-07 20:57 32.75250 -117.36414 6856 ft 263 kts 216°
2026-05-07 20:57 32.73548 -117.37206 7572 ft 267 kts 184°
2026-05-07 20:58 32.71746 -117.36851 8249 ft 268 kts 152°
2026-05-07 20:58 32.70318 -117.35463 8935 ft 268 kts 128°
2026-05-07 20:58 32.69166 -117.33759 9741 ft 267 kts 125°
2026-05-07 20:58 32.68035 -117.32037 10531 ft 268 kts 124°
2026-05-07 20:59 32.66882 -117.30277 11262 ft 270 kts 124°
2026-05-07 20:59 32.65726 -117.28513 11975 ft 273 kts 124°
2026-05-07 20:59 32.64566 -117.26746 12680 ft 276 kts 124°
2026-05-07 20:59 32.63478 -117.24881 13329 ft 275 kts 110°
2026-05-07 21:00 32.62971 -117.22705 13772 ft 283 kts 95°
2026-05-07 21:00 32.62735 -117.20329 14065 ft 301 kts 93°
2026-05-07 21:00 32.62523 -117.17793 14407 ft 318 kts 93°
2026-05-07 21:00 32.62289 -117.15123 14744 ft 335 kts 93°
2026-05-07 21:01 32.62146 -117.12300 15051 ft 350 kts 86°
2026-05-07 21:01 32.62424 -117.09367 15335 ft 365 kts 76°
2026-05-07 21:01 32.63170 -117.06441 15635 ft 379 kts 68°
2026-05-07 21:01 32.64130 -117.03483 16127 ft 389 kts 67°
2026-05-07 21:02 32.65105 -117.00511 16884 ft 391 kts 67°
2026-05-07 21:02 32.66020 -116.97556 17588 ft 394 kts 71°
2026-05-07 21:02 32.66601 -116.94285 18236 ft 402 kts 81°
2026-05-07 21:02 32.66768 -116.90958 18828 ft 409 kts 85°
2026-05-07 21:03 32.66884 -116.87569 19501 ft 412 kts 82°
2026-05-07 21:03 32.67358 -116.84256 20104 ft 413 kts 73°
2026-05-07 21:03 32.68286 -116.81033 20696 ft 415 kts 64°
2026-05-07 21:03 32.69653 -116.78014 21310 ft 416 kts 55°
2026-05-07 21:04 32.71426 -116.75288 21963 ft 417 kts 46°
2026-05-07 21:04 32.73535 -116.72958 22585 ft 418 kts 37°
2026-05-07 21:04 32.75938 -116.71056 23129 ft 422 kts 28°
2026-05-07 21:04 32.78612 -116.69585 23714 ft 425 kts 22°
2026-05-07 21:05 32.81357 -116.68267 24290 ft 429 kts 22°
2026-05-07 21:05 32.84139 -116.66931 24867 ft 432 kts 22°
2026-05-07 21:05 32.86923 -116.65585 25384 ft 436 kts 22°
2026-05-07 21:05 32.89764 -116.64205 25970 ft 438 kts 22°
2026-05-07 21:06 32.92582 -116.62831 26544 ft 440 kts 22°
2026-05-07 21:06 32.95398 -116.61454 27013 ft 444 kts 22°
2026-05-07 21:06 32.98303 -116.60031 27436 ft 449 kts 22°
2026-05-07 21:06 33.01176 -116.58621 27894 ft 453 kts 22°
2026-05-07 21:07 33.04080 -116.57135 28359 ft 456 kts 24°
2026-05-07 21:07 33.07005 -116.55602 28888 ft 458 kts 24°
2026-05-07 21:07 33.09885 -116.54092 29401 ft 459 kts 24°
2026-05-07 21:07 33.12878 -116.52522 29938 ft 460 kts 23°
2026-05-07 21:08 33.15831 -116.50974 30568 ft 459 kts 24°
2026-05-07 21:08 33.18778 -116.49429 31249 ft 456 kts 24°
2026-05-07 21:08 33.21632 -116.47932 31947 ft 452 kts 24°
2026-05-07 21:08 33.24539 -116.46407 32554 ft 450 kts 24°
2026-05-07 21:09 33.27348 -116.44932 33146 ft 447 kts 24°
2026-05-07 21:09 33.30217 -116.43425 33654 ft 447 kts 24°
2026-05-07 21:09 33.33076 -116.41922 34146 ft 446 kts 24°
2026-05-07 21:09 33.35855 -116.40391 34679 ft 445 kts 28°
2026-05-07 21:10 33.38465 -116.38456 35230 ft 443 kts 35°
2026-05-07 21:10 33.40837 -116.36077 35766 ft 442 kts 43°
2026-05-07 21:10 33.42868 -116.33366 36274 ft 442 kts 51°
2026-05-07 21:10 33.44707 -116.30376 36674 ft 442 kts 52°
2026-05-07 21:11 33.46488 -116.27406 36957 ft 444 kts 52°
2026-05-07 21:11 33.48293 -116.24391 37232 ft 446 kts 52°
2026-05-07 21:11 33.51877 -116.18400 37831 ft 446 kts 52°
2026-05-07 21:12 33.53693 -116.15360 38163 ft 446 kts 52°
2026-05-07 21:12 33.55482 -116.12364 38428 ft 446 kts 52°
2026-05-07 21:12 33.57289 -116.09336 38622 ft 447 kts 52°
2026-05-07 21:12 33.59098 -116.06292 38833 ft 448 kts 53°
2026-05-07 21:13 33.61973 -115.99606 38911 ft 453 kts 64°
2026-05-07 21:13 33.64394 -115.92677 38934 ft 452 kts 64°
2026-05-07 21:14 33.66806 -115.85759 38974 ft 451 kts 64°
2026-05-07 21:14 33.69223 -115.78820 39015 ft 450 kts 65°
2026-05-07 21:15 33.71619 -115.71933 39037 ft 451 kts 64°
2026-05-07 21:15 33.74035 -115.64972 39014 ft 450 kts 64°
2026-05-07 21:16 33.76433 -115.58051 38991 ft 449 kts 64°
2026-05-07 21:16 33.78825 -115.51136 38948 ft 449 kts 64°
2026-05-07 21:17 33.81205 -115.44237 38909 ft 448 kts 65°
2026-05-07 21:17 33.83584 -115.37326 38887 ft 448 kts 65°
2026-05-07 21:18 33.85959 -115.30413 38879 ft 448 kts 65°
2026-05-07 21:18 33.88329 -115.23500 38838 ft 445 kts 65°
2026-05-07 21:19 33.90692 -115.16590 38859 ft 447 kts 65°
2026-05-07 21:19 33.93032 -115.09734 38856 ft 444 kts 65°
2026-05-07 21:20 33.95379 -115.02844 38870 ft 445 kts 65°
2026-05-07 21:20 33.97706 -114.95994 38855 ft 443 kts 65°
2026-05-07 21:21 34.00036 -114.89124 38866 ft 445 kts 65°
2026-05-07 21:21 34.02351 -114.82282 38851 ft 444 kts 65°
2026-05-07 21:22 34.04676 -114.75394 38848 ft 445 kts 65°
2026-05-07 21:22 34.07003 -114.68487 38849 ft 445 kts 65°
2026-05-07 21:23 34.09327 -114.61571 38861 ft 447 kts 65°
2026-05-07 21:23 34.11641 -114.54670 38846 ft 445 kts 65°
2026-05-07 21:24 34.13950 -114.47771 38840 ft 446 kts 65°
2026-05-07 21:24 34.16271 -114.40820 38851 ft 446 kts 65°
2026-05-07 21:25 34.18583 -114.33878 38838 ft 445 kts 66°
2026-05-07 21:25 34.20890 -114.26938 38835 ft 446 kts 66°
2026-05-07 21:26 34.23193 -114.19993 38831 ft 447 kts 66°
2026-05-07 21:26 34.25497 -114.13030 38838 ft 446 kts 66°
2026-05-07 21:27 34.27723 -114.06034 38836 ft 446 kts 69°
2026-05-07 21:27 34.29659 -113.98928 38850 ft 449 kts 69°
2026-05-07 21:28 34.31607 -113.91799 38850 ft 447 kts 69°
2026-05-07 21:28 34.33559 -113.84676 38876 ft 448 kts 69°
2026-05-07 21:29 34.35525 -113.77504 38893 ft 447 kts 69°
2026-05-07 21:29 34.37474 -113.70388 38904 ft 447 kts 69°
2026-05-07 21:30 34.39427 -113.63248 38949 ft 448 kts 69°
2026-05-07 21:30 34.41354 -113.56184 38963 ft 446 kts 69°
2026-05-07 21:31 34.43299 -113.49038 38998 ft 447 kts 69°
2026-05-07 21:31 34.45245 -113.41872 39004 ft 449 kts 69°
2026-05-07 21:32 34.47183 -113.34715 39020 ft 446 kts 70°
2026-05-07 21:32 34.49105 -113.27597 39031 ft 448 kts 70°
2026-05-07 21:33 34.51031 -113.20447 39025 ft 445 kts 70°
2026-05-07 21:33 34.52946 -113.13321 39033 ft 447 kts 70°
2026-05-07 21:34 34.54858 -113.06188 39047 ft 447 kts 70°
2026-05-07 21:34 34.56768 -112.99042 39070 ft 448 kts 70°
2026-05-07 21:35 34.58673 -112.91894 39087 ft 446 kts 70°
2026-05-07 21:35 34.60572 -112.84752 39115 ft 446 kts 70°
2026-05-07 21:36 34.62472 -112.77586 39101 ft 447 kts 70°
2026-05-07 21:36 34.64365 -112.70431 39102 ft 449 kts 70°
2026-05-07 21:37 34.66256 -112.63262 39111 ft 447 kts 70°
2026-05-07 21:37 34.68152 -112.56052 39097 ft 447 kts 70°
2026-05-07 21:38 34.70032 -112.48887 39114 ft 449 kts 70°
2026-05-07 21:38 34.71721 -112.41635 39100 ft 446 kts 73°
2026-05-07 21:39 34.73305 -112.34318 39086 ft 448 kts 73°
2026-05-07 21:39 34.74888 -112.27035 39104 ft 448 kts 73°
2026-05-07 21:40 34.76474 -112.19747 39125 ft 448 kts 73°
2026-05-07 21:40 34.78064 -112.12430 39098 ft 446 kts 73°
2026-05-07 21:41 34.79638 -112.05179 39082 ft 449 kts 73°
2026-05-07 21:41 34.81219 -111.97871 39074 ft 447 kts 73°
2026-05-07 21:42 34.82804 -111.90528 39061 ft 449 kts 73°
2026-05-07 21:42 34.84380 -111.83203 39072 ft 450 kts 73°
2026-05-07 21:43 34.85952 -111.75874 39091 ft 449 kts 73°
2026-05-07 21:43 34.87529 -111.68501 39121 ft 451 kts 73°
2026-05-07 21:44 34.89089 -111.61179 39140 ft 451 kts 73°
2026-05-07 21:44 34.90665 -111.53760 39190 ft 453 kts 73°
2026-05-07 21:45 34.92227 -111.46385 39154 ft 452 kts 73°
2026-05-07 21:45 34.93792 -111.38969 39156 ft 455 kts 73°
2026-05-07 21:46 34.95353 -111.31551 39167 ft 454 kts 74°
2026-05-07 21:46 34.96925 -111.24052 39162 ft 455 kts 73°
2026-05-07 21:47 34.98470 -111.16663 39183 ft 456 kts 74°
2026-05-07 21:47 35.00037 -111.09142 39162 ft 458 kts 73°
2026-05-07 21:48 35.01595 -111.01633 39159 ft 456 kts 74°
2026-05-07 21:48 35.03143 -110.94154 39147 ft 458 kts 74°
2026-05-07 21:49 35.04694 -110.86631 39124 ft 458 kts 74°
2026-05-07 21:49 35.06729 -110.79378 39108 ft 455 kts 61°
2026-05-07 21:50 35.10275 -110.73030 39112 ft 453 kts 50°
2026-05-07 21:50 35.14199 -110.67043 39152 ft 454 kts 50°
2026-05-07 21:51 35.18126 -110.61016 39127 ft 453 kts 50°
2026-05-07 21:51 35.22031 -110.54994 39162 ft 454 kts 50°
2026-05-07 21:52 35.25928 -110.48965 39101 ft 452 kts 50°
2026-05-07 21:52 35.29830 -110.42913 39162 ft 452 kts 50°
2026-05-07 21:53 35.33711 -110.36880 39156 ft 453 kts 50°
2026-05-07 21:53 35.37607 -110.30812 39162 ft 454 kts 51°
2026-05-07 21:54 35.41477 -110.24773 39169 ft 452 kts 50°
2026-05-07 21:54 35.45366 -110.18694 39170 ft 453 kts 50°
2026-05-07 21:55 35.49225 -110.12651 39173 ft 452 kts 51°
2026-05-07 21:55 35.53085 -110.06596 39178 ft 451 kts 51°
2026-05-07 21:56 35.56957 -110.00512 39176 ft 453 kts 50°
2026-05-07 21:56 35.60818 -109.94434 39186 ft 452 kts 50°
2026-05-07 21:57 35.64667 -109.88364 39190 ft 454 kts 50°
2026-05-07 21:57 35.68553 -109.82225 39202 ft 454 kts 50°
2026-05-07 21:58 35.72410 -109.76121 39205 ft 454 kts 50°
2026-05-07 21:58 35.76282 -109.69981 39211 ft 455 kts 50°
2026-05-07 21:59 35.80146 -109.63844 39215 ft 454 kts 50°
2026-05-07 21:59 35.83979 -109.57743 39227 ft 453 kts 50°
2026-05-07 22:00 35.87825 -109.51614 39200 ft 455 kts 50°
2026-05-07 22:00 35.91716 -109.45400 39212 ft 455 kts 50°
2026-05-07 22:01 35.95546 -109.39273 39231 ft 455 kts 50°
2026-05-07 22:01 35.99398 -109.33099 39230 ft 456 kts 51°
2026-05-07 22:02 36.03274 -109.26877 39216 ft 457 kts 51°
2026-05-07 22:02 36.07127 -109.20679 39233 ft 457 kts 51°
2026-05-07 22:03 36.10999 -109.14439 39252 ft 458 kts 51°
2026-05-07 22:03 36.14872 -109.08187 39265 ft 458 kts 50°
2026-05-07 22:04 36.18736 -109.01938 39239 ft 458 kts 51°
2026-05-07 22:04 36.22585 -108.95702 39251 ft 459 kts 51°
2026-05-07 22:05 36.26455 -108.89420 39218 ft 458 kts 50°
2026-05-07 22:05 36.30282 -108.83197 39197 ft 458 kts 50°
2026-05-07 22:06 36.34155 -108.76888 39199 ft 460 kts 50°
2026-05-07 22:06 36.38015 -108.70587 39172 ft 460 kts 50°
2026-05-07 22:07 36.41855 -108.64308 39175 ft 460 kts 50°
2026-05-07 22:07 36.45726 -108.57967 39151 ft 461 kts 50°
2026-05-07 22:08 36.49600 -108.51608 39156 ft 462 kts 50°
2026-05-07 22:08 36.53454 -108.45271 39142 ft 461 kts 50°
2026-05-07 22:09 36.57327 -108.38891 39127 ft 463 kts 50°
2026-05-07 22:09 36.61190 -108.32516 39104 ft 462 kts 50°
2026-05-07 22:10 36.65035 -108.26157 39103 ft 463 kts 51°
2026-05-07 22:10 36.68882 -108.19783 39091 ft 463 kts 50°
2026-05-07 22:11 36.72758 -108.13350 39070 ft 462 kts 50°
2026-05-07 22:11 36.76267 -108.06662 39087 ft 468 kts 58°
2026-05-07 22:12 36.79419 -107.99593 39100 ft 467 kts 58°
2026-05-07 22:12 36.82563 -107.92512 39105 ft 466 kts 58°
2026-05-07 22:13 36.85676 -107.85484 39115 ft 466 kts 58°
2026-05-07 22:13 36.88800 -107.78416 39147 ft 467 kts 58°
2026-05-07 22:14 36.91926 -107.71327 39156 ft 466 kts 58°
2026-05-07 22:14 36.95047 -107.64235 39154 ft 467 kts 58°
2026-05-07 22:15 36.98162 -107.57140 39158 ft 467 kts 58°
2026-05-07 22:15 37.01280 -107.50023 39155 ft 468 kts 58°
2026-05-07 22:16 37.04390 -107.42908 39165 ft 469 kts 58°
2026-05-07 22:16 37.07523 -107.35726 39171 ft 469 kts 58°
2026-05-07 22:17 37.10635 -107.28577 39199 ft 471 kts 58°
2026-05-07 22:17 37.13741 -107.21423 39190 ft 470 kts 58°
2026-05-07 22:18 37.18413 -107.10633 39196 ft 470 kts 58°
2026-05-07 22:19 37.21537 -107.03400 39192 ft 473 kts 58°
2026-05-07 22:19 37.24649 -106.96179 39198 ft 472 kts 58°
2026-05-07 22:20 37.27764 -106.88935 39214 ft 475 kts 58°
2026-05-07 22:20 37.30878 -106.81674 39221 ft 473 kts 58°
2026-05-07 22:21 37.34005 -106.74370 39257 ft 475 kts 58°
2026-05-07 22:21 37.37097 -106.67127 39261 ft 474 kts 58°
2026-05-07 22:22 37.40224 -106.59789 39271 ft 475 kts 58°
2026-05-07 22:22 37.43312 -106.52524 39325 ft 475 kts 58°
2026-05-07 22:23 37.46433 -106.45167 39322 ft 476 kts 58°
2026-05-07 22:23 37.49546 -106.37810 39306 ft 478 kts 57°
2026-05-07 22:24 37.52678 -106.30394 39286 ft 485 kts 58°
2026-05-07 22:24 37.55833 -106.22904 39285 ft 491 kts 58°
2026-05-07 22:25 37.59061 -106.15224 39289 ft 497 kts 58°
2026-05-07 22:25 37.62288 -106.07526 39283 ft 503 kts 58°
2026-05-07 22:26 37.65556 -105.99710 39265 ft 507 kts 58°
2026-05-07 22:26 37.68849 -105.91814 39276 ft 510 kts 58°
2026-05-07 22:27 37.72151 -105.83878 39266 ft 511 kts 58°
2026-05-07 22:27 37.75449 -105.75933 39266 ft 512 kts 58°
2026-05-07 22:28 37.78729 -105.68009 39273 ft 513 kts 58°
2026-05-07 22:28 37.82015 -105.60050 39247 ft 513 kts 58°
2026-05-07 22:29 37.85332 -105.51997 39265 ft 514 kts 58°
2026-05-07 22:29 37.88620 -105.43996 39265 ft 515 kts 58°
2026-05-07 22:30 37.91920 -105.35944 39256 ft 516 kts 58°
2026-05-07 22:30 37.95195 -105.27933 39265 ft 517 kts 59°
2026-05-07 22:31 37.98492 -105.19847 39264 ft 517 kts 59°
2026-05-07 22:31 38.01789 -105.11739 39252 ft 518 kts 59°
2026-05-07 22:32 38.05095 -105.03590 39261 ft 519 kts 59°
2026-05-07 22:32 38.08362 -104.95515 39228 ft 520 kts 59°
2026-05-07 22:33 38.11674 -104.87309 39217 ft 521 kts 59°
2026-05-07 22:33 38.14968 -104.79122 39197 ft 522 kts 59°
2026-05-07 22:34 38.18272 -104.70891 39159 ft 523 kts 59°
2026-05-07 22:34 38.21577 -104.62637 39139 ft 522 kts 59°
2026-05-07 22:35 38.24863 -104.54408 39082 ft 524 kts 59°
2026-05-07 22:35 38.28160 -104.46129 39064 ft 525 kts 59°
2026-05-07 22:36 38.31044 -104.37558 39080 ft 528 kts 65°
2026-05-07 22:36 38.33689 -104.28848 39088 ft 529 kts 66°
2026-05-07 22:37 38.36328 -104.20112 39117 ft 529 kts 65°
2026-05-07 22:37 38.38953 -104.11392 39091 ft 530 kts 65°
2026-05-07 22:38 38.41576 -104.02645 39094 ft 531 kts 65°
2026-05-07 22:38 38.44189 -103.93904 39088 ft 532 kts 66°
2026-05-07 22:39 38.46828 -103.85048 39090 ft 532 kts 66°
2026-05-07 22:39 38.49440 -103.76253 39074 ft 534 kts 65°
2026-05-07 22:40 38.52043 -103.67454 39073 ft 533 kts 65°
2026-05-07 22:40 38.54665 -103.58568 39066 ft 534 kts 65°
2026-05-07 22:41 38.57253 -103.49766 39075 ft 535 kts 66°
2026-05-07 22:41 38.59861 -103.40867 39075 ft 536 kts 65°
2026-05-07 22:42 38.62470 -103.31936 39062 ft 537 kts 66°
2026-05-07 22:42 38.65059 -103.23041 39062 ft 537 kts 66°
2026-05-07 22:43 38.67657 -103.14086 39065 ft 539 kts 66°
2026-05-07 22:43 38.70244 -103.05143 39055 ft 538 kts 66°
2026-05-07 22:44 38.72824 -102.96190 39054 ft 539 kts 66°
2026-05-07 22:44 38.75425 -102.87132 39038 ft 540 kts 66°
2026-05-07 22:45 38.77983 -102.78198 38970 ft 540 kts 66°
2026-05-07 22:45 38.80559 -102.69167 39038 ft 542 kts 66°
2026-05-07 22:46 38.83138 -102.60098 39034 ft 543 kts 66°
2026-05-07 22:46 38.85704 -102.51041 39041 ft 544 kts 66°
2026-05-07 22:47 38.88273 -102.41943 39037 ft 544 kts 66°
2026-05-07 22:47 38.90854 -102.32770 39022 ft 545 kts 67°
2026-05-07 22:48 38.93407 -102.23662 39018 ft 546 kts 67°
2026-05-07 22:48 38.95958 -102.14535 39007 ft 548 kts 67°
2026-05-07 22:49 38.98532 -102.05288 39013 ft 548 kts 67°
2026-05-07 22:49 39.00398 -101.95790 39003 ft 553 kts 78°
2026-05-07 22:50 39.01501 -101.86006 38987 ft 555 kts 79°
2026-05-07 22:50 39.02565 -101.76266 38989 ft 555 kts 80°
2026-05-07 22:51 39.03624 -101.66443 38980 ft 557 kts 80°
2026-05-07 22:51 39.04667 -101.56660 38961 ft 557 kts 79°
2026-05-07 22:52 39.05717 -101.46724 38947 ft 559 kts 80°
2026-05-07 22:52 39.06748 -101.36874 38952 ft 560 kts 80°
2026-05-07 22:53 39.07774 -101.26987 38947 ft 561 kts 81°
2026-05-07 22:53 39.08798 -101.17032 38936 ft 561 kts 81°
2026-05-07 22:54 39.09804 -101.07156 38935 ft 563 kts 81°
2026-05-07 22:54 39.10817 -100.97141 38938 ft 565 kts 81°
2026-05-07 22:55 39.11818 -100.87135 38935 ft 565 kts 81°
2026-05-07 22:55 39.12808 -100.77171 38928 ft 565 kts 81°
2026-05-07 22:56 39.13792 -100.67166 38933 ft 566 kts 81°
2026-05-07 22:56 39.14766 -100.57181 38934 ft 566 kts 81°
2026-05-07 22:57 39.15736 -100.47143 38936 ft 567 kts 81°
2026-05-07 22:57 39.16703 -100.37043 38937 ft 568 kts 81°
2026-05-07 22:58 39.17662 -100.26936 38926 ft 568 kts 82°
2026-05-07 22:58 39.18608 -100.16863 38919 ft 569 kts 82°
2026-05-07 22:59 39.19546 -100.06791 38910 ft 570 kts 82°
2026-05-07 22:59 39.20480 -99.96663 38907 ft 570 kts 82°
2026-05-07 23:00 39.21399 -99.86599 38913 ft 571 kts 82°
2026-05-07 23:00 39.22320 -99.76416 38912 ft 572 kts 82°
2026-05-07 23:01 39.23227 -99.66280 38918 ft 573 kts 82°
2026-05-07 23:01 39.24129 -99.56113 38919 ft 573 kts 82°
2026-05-07 23:02 39.25021 -99.45944 38921 ft 574 kts 82°
2026-05-07 23:02 39.25909 -99.35720 38915 ft 572 kts 82°
2026-05-07 23:03 39.26783 -99.25552 38897 ft 573 kts 83°
2026-05-07 23:03 39.27649 -99.15367 38904 ft 574 kts 83°
2026-05-07 23:04 39.28505 -99.05201 38903 ft 574 kts 83°
2026-05-07 23:04 39.29357 -98.94968 38904 ft 574 kts 82°
2026-05-07 23:05 39.30197 -98.84774 38898 ft 575 kts 83°
2026-05-07 23:05 39.31035 -98.74495 38898 ft 576 kts 83°
2026-05-07 23:06 39.31858 -98.64281 38888 ft 576 kts 83°
2026-05-07 23:06 39.32673 -98.54060 38888 ft 577 kts 83°
2026-05-07 23:07 39.33483 -98.43782 38885 ft 579 kts 83°
2026-05-07 23:07 39.34285 -98.33487 38879 ft 578 kts 83°
2026-05-07 23:08 39.35084 -98.23117 38857 ft 579 kts 84°
2026-05-07 23:08 39.35866 -98.12842 38868 ft 579 kts 83°
2026-05-07 23:09 39.36640 -98.02552 38863 ft 579 kts 83°
2026-05-07 23:09 39.37410 -97.92190 38853 ft 581 kts 83°
2026-05-07 23:10 39.38171 -97.81825 38866 ft 581 kts 83°
2026-05-07 23:10 39.38919 -97.71505 38868 ft 580 kts 83°
2026-05-07 23:11 39.39660 -97.61159 38865 ft 582 kts 84°
2026-05-07 23:11 39.40391 -97.50819 38869 ft 581 kts 83°
2026-05-07 23:12 39.41118 -97.40403 38867 ft 582 kts 83°
2026-05-07 23:12 39.41835 -97.30007 38843 ft 582 kts 84°
2026-05-07 23:13 39.42542 -97.19612 38841 ft 584 kts 84°
2026-05-07 23:13 39.43238 -97.09224 38863 ft 584 kts 84°
2026-05-07 23:14 39.43927 -96.98824 38865 ft 584 kts 84°
2026-05-07 23:14 39.44608 -96.88397 38876 ft 584 kts 84°
2026-05-07 23:15 39.45278 -96.77978 38877 ft 584 kts 84°
2026-05-07 23:15 39.45941 -96.67534 38879 ft 584 kts 84°
2026-05-07 23:16 39.46595 -96.57098 38884 ft 584 kts 84°
2026-05-07 23:16 39.47240 -96.46622 38883 ft 583 kts 84°
2026-05-07 23:17 39.47874 -96.36195 38886 ft 585 kts 84°
2026-05-07 23:17 39.48499 -96.25748 38868 ft 586 kts 85°
2026-05-07 23:18 39.49115 -96.15299 38875 ft 585 kts 85°
2026-05-07 23:18 39.49725 -96.04799 38879 ft 585 kts 85°
2026-05-07 23:19 39.50399 -95.94329 38888 ft 586 kts 83°
2026-05-07 23:19 39.51255 -95.83917 38886 ft 585 kts 83°
2026-05-07 23:20 39.52105 -95.73422 38883 ft 586 kts 83°
2026-05-07 23:20 39.52936 -95.62946 38889 ft 586 kts 83°
2026-05-07 23:21 39.53754 -95.52459 38893 ft 588 kts 83°
2026-05-07 23:21 39.54562 -95.41959 38890 ft 586 kts 83°
2026-05-07 23:22 39.55355 -95.31511 38884 ft 589 kts 83°
2026-05-07 23:22 39.56140 -95.21026 38882 ft 587 kts 84°
2026-05-07 23:23 39.56916 -95.10520 38885 ft 588 kts 83°
2026-05-07 23:23 39.57687 -94.99962 38886 ft 587 kts 83°
2026-05-07 23:24 39.58443 -94.89457 38893 ft 589 kts 84°
2026-05-07 23:24 39.59190 -94.78951 38893 ft 587 kts 84°
2026-05-07 23:25 39.59928 -94.68443 38894 ft 588 kts 84°
2026-05-07 23:25 39.60656 -94.57944 38898 ft 590 kts 84°
2026-05-07 23:26 39.61378 -94.47376 38898 ft 587 kts 84°
2026-05-07 23:26 39.62088 -94.36836 38915 ft 590 kts 84°
2026-05-07 23:27 39.63141 -94.20967 38906 ft 591 kts 84°
2026-05-07 23:27 39.63827 -94.10432 38911 ft 592 kts 85°
2026-05-07 23:28 39.64507 -93.99840 38896 ft 590 kts 84°
2026-05-07 23:28 39.65180 -93.89205 38902 ft 591 kts 84°
2026-05-07 23:29 39.65836 -93.78683 38899 ft 591 kts 84°
2026-05-07 23:29 39.66489 -93.68055 38909 ft 593 kts 84°
2026-05-07 23:30 39.67132 -93.57447 38913 ft 592 kts 85°
2026-05-07 23:30 39.67768 -93.46764 38911 ft 593 kts 85°
2026-05-07 23:31 39.68393 -93.36131 38919 ft 593 kts 85°
2026-05-07 23:31 39.69006 -93.25507 38904 ft 593 kts 85°
2026-05-07 23:32 39.69611 -93.14870 38911 ft 594 kts 85°
2026-05-07 23:32 39.70206 -93.04226 38925 ft 595 kts 85°
2026-05-07 23:33 39.70791 -92.93584 38918 ft 594 kts 85°
2026-05-07 23:33 39.71367 -92.82938 38930 ft 595 kts 85°
2026-05-07 23:34 39.71936 -92.72232 38938 ft 596 kts 85°
2026-05-07 23:34 39.72495 -92.61527 38932 ft 596 kts 85°
2026-05-07 23:35 39.73043 -92.50840 38940 ft 595 kts 85°
2026-05-07 23:35 39.73582 -92.40138 38942 ft 595 kts 85°
2026-05-07 23:36 39.74114 -92.29390 38925 ft 596 kts 86°
2026-05-07 23:36 39.74630 -92.18753 38928 ft 597 kts 86°
2026-05-07 23:37 39.75141 -92.08006 38937 ft 598 kts 86°
2026-05-07 23:37 39.75642 -91.97280 38935 ft 597 kts 86°
2026-05-07 23:38 39.76135 -91.86488 38937 ft 598 kts 85°
2026-05-07 23:38 39.76616 -91.75762 38939 ft 598 kts 85°
2026-05-07 23:39 39.77090 -91.64965 38946 ft 600 kts 85°
2026-05-07 23:39 39.77552 -91.54206 38952 ft 601 kts 85°
2026-05-07 23:40 39.78006 -91.43391 38961 ft 602 kts 85°
2026-05-07 23:40 39.78451 -91.32555 38946 ft 602 kts 86°
2026-05-07 23:41 39.78889 -91.21661 38941 ft 603 kts 86°
2026-05-07 23:41 39.79314 -91.10816 38930 ft 603 kts 86°
2026-05-07 23:42 39.79727 -91.00020 38937 ft 604 kts 86°
2026-05-07 23:42 39.80133 -90.89151 38922 ft 604 kts 86°
2026-05-07 23:43 39.80529 -90.78256 38937 ft 604 kts 86°
2026-05-07 23:43 39.80915 -90.67368 38943 ft 605 kts 86°
2026-05-07 23:44 39.81291 -90.56480 38933 ft 605 kts 86°
2026-05-07 23:44 39.81657 -90.45583 38945 ft 606 kts 86°
2026-05-07 23:45 39.82013 -90.34694 38950 ft 605 kts 86°
2026-05-07 23:45 39.82360 -90.23757 38933 ft 605 kts 87°
2026-05-07 23:46 39.82694 -90.12878 38950 ft 607 kts 87°
2026-05-07 23:46 39.83021 -90.01920 38934 ft 606 kts 86°
2026-05-07 23:47 39.83337 -89.90979 38934 ft 606 kts 87°
2026-05-07 23:47 39.83640 -89.80126 38950 ft 606 kts 87°
2026-05-07 23:48 39.83937 -89.69132 38953 ft 607 kts 86°
2026-05-07 23:48 39.84194 -89.58239 38955 ft 606 kts 87°
2026-05-07 23:49 39.84425 -89.47320 38952 ft 607 kts 87°
2026-05-07 23:49 39.84649 -89.36311 38948 ft 608 kts 87°
2026-05-07 23:50 39.84860 -89.25415 38938 ft 606 kts 88°
2026-05-07 23:50 39.85064 -89.14468 38946 ft 607 kts 88°
2026-05-07 23:51 39.85256 -89.03550 38949 ft 606 kts 88°
2026-05-07 23:51 39.85438 -88.92650 38972 ft 606 kts 88°
2026-05-07 23:52 39.85610 -88.81731 38965 ft 607 kts 88°
2026-05-07 23:52 39.85773 -88.70767 38978 ft 607 kts 88°
2026-05-07 23:53 39.85926 -88.59784 38974 ft 607 kts 88°
2026-05-07 23:53 39.86067 -88.48892 38960 ft 608 kts 88°
2026-05-07 23:54 39.86200 -88.37855 38982 ft 608 kts 88°
2026-05-07 23:54 39.86321 -88.26910 38960 ft 608 kts 89°
2026-05-07 23:55 39.86432 -88.15955 38950 ft 608 kts 89°
2026-05-07 23:55 39.86533 -88.05004 38962 ft 608 kts 89°
2026-05-07 23:56 39.86624 -87.93979 38966 ft 609 kts 88°
2026-05-07 23:56 39.86704 -87.83054 38947 ft 609 kts 89°
2026-05-07 23:57 39.86774 -87.72061 38978 ft 610 kts 89°
2026-05-07 23:57 39.86834 -87.61043 38960 ft 610 kts 88°
2026-05-07 23:58 39.86883 -87.50092 38979 ft 609 kts 89°
2026-05-07 23:58 39.86923 -87.39088 38960 ft 609 kts 89°
2026-05-07 23:59 39.86951 -87.28126 38964 ft 609 kts 89°
2026-05-07 23:59 39.86969 -87.17057 38949 ft 611 kts 89°
2026-05-08 00:00 39.86977 -87.06068 38973 ft 610 kts 89°
2026-05-08 00:00 39.86974 -86.95055 38977 ft 610 kts 89°
2026-05-08 00:01 39.86961 -86.84018 38987 ft 611 kts 89°
2026-05-08 00:01 39.86938 -86.73011 38987 ft 611 kts 89°
2026-05-08 00:02 39.86904 -86.62058 38990 ft 611 kts 89°
2026-05-08 00:02 39.86860 -86.51038 38997 ft 612 kts 89°
2026-05-08 00:03 39.86808 -86.40007 39003 ft 612 kts 88°
2026-05-08 00:03 39.87836 -86.29060 38999 ft 609 kts 73°
2026-05-08 00:04 39.89908 -86.18426 38988 ft 608 kts 72°
2026-05-08 00:04 39.91987 -86.07770 39022 ft 608 kts 73°
2026-05-08 00:05 39.94027 -85.97167 39002 ft 607 kts 73°
2026-05-08 00:05 39.96048 -85.86543 39009 ft 608 kts 73°
2026-05-08 00:06 39.98059 -85.75885 39014 ft 607 kts 73°
2026-05-08 00:06 40.00059 -85.65201 39007 ft 606 kts 72°
2026-05-08 00:07 40.02039 -85.54553 39015 ft 605 kts 72°
2026-05-08 00:07 40.04004 -85.43921 39015 ft 606 kts 72°
2026-05-08 00:08 40.05956 -85.33292 39005 ft 605 kts 73°
2026-05-08 00:08 40.07895 -85.22678 38988 ft 606 kts 73°
2026-05-08 00:09 40.09831 -85.12020 38992 ft 606 kts 73°
2026-05-08 00:09 40.11760 -85.01334 38990 ft 606 kts 74°
2026-05-08 00:10 40.13673 -84.90680 38989 ft 606 kts 74°
2026-05-08 00:10 40.15584 -84.79971 39005 ft 605 kts 73°
2026-05-08 00:11 40.17474 -84.69322 38998 ft 605 kts 73°
2026-05-08 00:11 40.19353 -84.58672 39003 ft 604 kts 73°
2026-05-08 00:12 40.21236 -84.47939 39011 ft 604 kts 73°
2026-05-08 00:12 40.23098 -84.37266 39009 ft 605 kts 73°
2026-05-08 00:13 40.24948 -84.26595 38991 ft 604 kts 75°
2026-05-08 00:13 40.26788 -84.15923 38981 ft 603 kts 74°
2026-05-08 00:14 40.29127 -84.05453 38979 ft 596 kts 62°
2026-05-08 00:14 40.33174 -83.96221 38994 ft 582 kts 47°
2026-05-08 00:15 40.38021 -83.87754 38995 ft 582 kts 46°
2026-05-08 00:15 40.42859 -83.79291 38999 ft 579 kts 46°
2026-05-08 00:16 40.47637 -83.70870 38994 ft 580 kts 46°
2026-05-08 00:16 40.52450 -83.62340 38990 ft 580 kts 46°
2026-05-08 00:17 40.57214 -83.53856 38985 ft 580 kts 46°
2026-05-08 00:17 40.61972 -83.45354 38975 ft 580 kts 47°
2026-05-08 00:18 40.66745 -83.36796 38978 ft 578 kts 47°
2026-05-08 00:18 40.71501 -83.28309 38967 ft 578 kts 46°
2026-05-08 00:19 40.76433 -83.19955 38961 ft 578 kts 45°
2026-05-08 00:19 40.81359 -83.11601 38963 ft 578 kts 46°
2026-05-08 00:20 40.86269 -83.03235 38970 ft 577 kts 45°
2026-05-08 00:20 40.91168 -82.94859 38979 ft 579 kts 46°
2026-05-08 00:21 40.96055 -82.86471 38977 ft 578 kts 46°
2026-05-08 00:21 41.00649 -82.77786 38962 ft 584 kts 56°
2026-05-08 00:22 41.03642 -82.67669 38986 ft 597 kts 71°
2026-05-08 00:22 41.05716 -82.57127 38983 ft 596 kts 72°
2026-05-08 00:23 41.07780 -82.46455 38979 ft 597 kts 72°
2026-05-08 00:23 41.09808 -82.35915 38976 ft 596 kts 73°
2026-05-08 00:24 41.11843 -82.25279 38953 ft 597 kts 73°
2026-05-08 00:24 41.13877 -82.14591 38957 ft 596 kts 73°
2026-05-08 00:25 41.15889 -82.03963 38955 ft 598 kts 73°
2026-05-08 00:25 41.17894 -81.93310 38954 ft 598 kts 73°
2026-05-08 00:26 41.19885 -81.82676 38957 ft 598 kts 73°
2026-05-08 00:26 41.21879 -81.71964 38961 ft 597 kts 73°
2026-05-08 00:27 41.23853 -81.61304 38962 ft 597 kts 74°
2026-05-08 00:27 41.25819 -81.50620 38966 ft 597 kts 73°
2026-05-08 00:28 41.27775 -81.39937 38972 ft 596 kts 74°
2026-05-08 00:28 41.29721 -81.29248 38956 ft 597 kts 75°
2026-05-08 00:29 41.31648 -81.18598 38948 ft 596 kts 75°
2026-05-08 00:29 41.33576 -81.07883 38946 ft 596 kts 75°
2026-05-08 00:30 41.35483 -80.97224 38946 ft 595 kts 75°
2026-05-08 00:30 41.37385 -80.86536 38955 ft 596 kts 75°
2026-05-08 00:31 41.39285 -80.75794 38954 ft 597 kts 75°
2026-05-08 00:31 41.41162 -80.65115 38956 ft 595 kts 75°
2026-05-08 00:32 41.43026 -80.54456 38959 ft 595 kts 75°
2026-05-08 00:32 41.44896 -80.43692 38953 ft 596 kts 75°
2026-05-08 00:33 41.46744 -80.32995 38942 ft 595 kts 76°
2026-05-08 00:33 41.48589 -80.22250 38938 ft 594 kts 75°
2026-05-08 00:34 41.50410 -80.11586 38936 ft 595 kts 76°
2026-05-08 00:34 41.52230 -80.00862 38937 ft 594 kts 76°
2026-05-08 00:35 41.54037 -79.90149 38930 ft 595 kts 76°
2026-05-08 00:35 41.55830 -79.79450 38931 ft 593 kts 76°
2026-05-08 00:36 41.57624 -79.68687 38942 ft 594 kts 76°
2026-05-08 00:36 41.59391 -79.58016 38931 ft 592 kts 76°
2026-05-08 00:37 41.61160 -79.47269 38934 ft 592 kts 76°
2026-05-08 00:38 41.63782 -79.31208 38922 ft 591 kts 77°
2026-05-08 00:38 41.65522 -79.20476 38914 ft 592 kts 77°
2026-05-08 00:39 41.67251 -79.09737 38910 ft 592 kts 77°
2026-05-08 00:39 41.68963 -78.99034 38920 ft 591 kts 77°
2026-05-08 00:40 41.70663 -78.88341 38906 ft 592 kts 77°
2026-05-08 00:40 41.72368 -78.77557 38914 ft 591 kts 77°
2026-05-08 00:41 41.74050 -78.66839 38931 ft 591 kts 77°
2026-05-08 00:41 41.75722 -78.56119 38936 ft 592 kts 77°
2026-05-08 00:42 41.77394 -78.45323 38913 ft 592 kts 77°
2026-05-08 00:42 41.79042 -78.34618 38912 ft 590 kts 78°
2026-05-08 00:43 41.80685 -78.23875 38903 ft 591 kts 78°
2026-05-08 00:43 41.82319 -78.13121 38905 ft 590 kts 78°
2026-05-08 00:44 41.83946 -78.02344 38898 ft 592 kts 78°
2026-05-08 00:44 41.85196 -77.91534 38880 ft 592 kts 88°
2026-05-08 00:45 41.84530 -77.80617 38886 ft 586 kts 105°
2026-05-08 00:45 41.82220 -77.70211 38884 ft 583 kts 112°
2026-05-08 00:46 41.79662 -77.60001 38893 ft 581 kts 113°
2026-05-08 00:46 41.77035 -77.49802 38907 ft 583 kts 113°
2026-05-08 00:47 41.74357 -77.39573 38911 ft 582 kts 113°
2026-05-08 00:47 41.71666 -77.29411 38880 ft 582 kts 114°
2026-05-08 00:48 41.68948 -77.19228 38885 ft 581 kts 114°
2026-05-08 00:48 41.66228 -77.09112 38878 ft 583 kts 114°
2026-05-08 00:49 41.63469 -76.98903 38885 ft 582 kts 114°
2026-05-08 00:49 41.60710 -76.88746 38903 ft 581 kts 115°
2026-05-08 00:50 41.57964 -76.78685 38893 ft 583 kts 114°
2026-05-08 00:50 41.55165 -76.68475 38877 ft 581 kts 114°
2026-05-08 00:51 41.52391 -76.58394 38898 ft 582 kts 115°
2026-05-08 00:51 41.49607 -76.48312 38898 ft 579 kts 115°
2026-05-08 00:51 41.48243 -76.43368 38895 ft 561 kts 115°
2026-05-08 00:52 41.46920 -76.38588 38891 ft 543 kts 115°
2026-05-08 00:52 41.45631 -76.33935 38894 ft 526 kts 116°
2026-05-08 00:52 41.44378 -76.29430 38880 ft 514 kts 117°
2026-05-08 00:53 41.41863 -76.20451 38884 ft 519 kts 116°
2026-05-08 00:53 41.39376 -76.11575 38885 ft 504 kts 117°
2026-05-08 00:54 41.36969 -76.03011 38519 ft 488 kts 117°
2026-05-08 00:54 41.35793 -75.98830 37611 ft 488 kts 117°
2026-05-08 00:54 41.34595 -75.94592 36595 ft 494 kts 117°
2026-05-08 00:54 41.33380 -75.90321 35377 ft 504 kts 117°
2026-05-08 00:55 41.32142 -75.85967 34267 ft 509 kts 117°
2026-05-08 00:55 41.30899 -75.81591 33357 ft 509 kts 117°
2026-05-08 00:55 41.29660 -75.77232 32523 ft 507 kts 117°
2026-05-08 00:55 41.28409 -75.72840 31530 ft 508 kts 117°
2026-05-08 00:56 41.27166 -75.68486 30339 ft 512 kts 118°
2026-05-08 00:56 41.25790 -75.64127 29025 ft 514 kts 122°
2026-05-08 00:56 41.24329 -75.59813 27771 ft 515 kts 121°
2026-05-08 00:56 41.22883 -75.55543 26688 ft 510 kts 122°
2026-05-08 00:57 41.21455 -75.51319 25619 ft 504 kts 121°
2026-05-08 00:57 41.20037 -75.47126 24402 ft 501 kts 121°
2026-05-08 00:57 41.18630 -75.42960 23400 ft 491 kts 121°
2026-05-08 00:57 41.17254 -75.38883 22983 ft 485 kts 121°
2026-05-08 00:58 41.15859 -75.34769 22888 ft 489 kts 121°
2026-05-08 00:58 41.14469 -75.30664 22866 ft 488 kts 122°
2026-05-08 00:58 41.13079 -75.26556 22879 ft 488 kts 121°
2026-05-08 00:58 41.11690 -75.22452 22865 ft 489 kts 121°
2026-05-08 00:59 41.10304 -75.18362 22864 ft 487 kts 121°
2026-05-08 00:59 41.08923 -75.14291 22861 ft 487 kts 121°
2026-05-08 00:59 41.07525 -75.10183 22890 ft 494 kts 121°
2026-05-08 00:59 41.06130 -75.06075 22863 ft 486 kts 121°
2026-05-08 01:00 41.04733 -75.01968 22864 ft 484 kts 121°
2026-05-08 01:00 41.03362 -74.97953 22642 ft 485 kts 121°
2026-05-08 01:00 41.01973 -74.93884 22284 ft 481 kts 121°
2026-05-08 01:00 41.00626 -74.89914 21919 ft 476 kts 120°
2026-05-08 01:01 40.99565 -74.85709 21544 ft 481 kts 109°
2026-05-08 01:01 40.98946 -74.81389 21194 ft 482 kts 104°
2026-05-08 01:01 40.98435 -74.77054 20819 ft 478 kts 103°
2026-05-08 01:01 40.97928 -74.72692 20445 ft 474 kts 103°
2026-05-08 01:02 40.97431 -74.68434 20068 ft 471 kts 103°
2026-05-08 01:02 40.96928 -74.64144 19674 ft 468 kts 103°
2026-05-08 01:02 40.96431 -74.59921 19307 ft 464 kts 103°
2026-05-08 01:02 40.95935 -74.55725 18935 ft 459 kts 104°
2026-05-08 01:03 40.95444 -74.51585 18885 ft 458 kts 103°
2026-05-08 01:03 40.94952 -74.47454 18879 ft 459 kts 104°
2026-05-08 01:03 40.94451 -74.43268 18878 ft 459 kts 104°
2026-05-08 01:03 40.93953 -74.39114 18877 ft 459 kts 104°
2026-05-08 01:04 40.93462 -74.35020 18876 ft 446 kts 104°
2026-05-08 01:04 40.92983 -74.31009 18863 ft 427 kts 105°
2026-05-08 01:04 40.92529 -74.27219 18858 ft 409 kts 105°
2026-05-08 01:04 40.92094 -74.23618 18862 ft 392 kts 105°
2026-05-08 01:05 40.91666 -74.20102 18864 ft 381 kts 106°
2026-05-08 01:05 40.91246 -74.16682 18865 ft 381 kts 106°
2026-05-08 01:05 40.90676 -74.13250 18655 ft 380 kts 117°
2026-05-08 01:05 40.89475 -74.10227 18138 ft 362 kts 138°
2026-05-08 01:06 40.87729 -74.08062 17628 ft 328 kts 160°
2026-05-08 01:06 40.86439 -74.07153 17388 ft 316 kts 166°
2026-05-08 01:06 40.85767 -74.06746 17258 ft 318 kts 167°
2026-05-08 01:06 40.81681 -74.04444 16372 ft 320 kts 167°
2026-05-08 01:07 40.79614 -74.03310 15969 ft 318 kts 167°
2026-05-08 01:07 40.77565 -74.02193 15540 ft 318 kts 167°
2026-05-08 01:07 40.75537 -74.01102 15246 ft 313 kts 167°
2026-05-08 01:07 40.73541 -74.00025 14638 ft 310 kts 167°
2026-05-08 01:08 40.71534 -73.98954 13922 ft 311 kts 167°
2026-05-08 01:08 40.69536 -73.97913 13394 ft 312 kts 167°
2026-05-08 01:08 40.67516 -73.96879 13092 ft 308 kts 167°
2026-05-08 01:08 40.65548 -73.95884 12997 ft 305 kts 167°
2026-05-08 01:09 40.63527 -73.94872 12984 ft 310 kts 167°
2026-05-08 01:09 40.61530 -73.93871 12986 ft 308 kts 167°
2026-05-08 01:09 40.59505 -73.92856 12983 ft 310 kts 167°
2026-05-08 01:09 40.57499 -73.91846 12914 ft 308 kts 167°
2026-05-08 01:10 40.55494 -73.90837 12803 ft 308 kts 167°
2026-05-08 01:10 40.53501 -73.89844 12640 ft 308 kts 167°
2026-05-08 01:10 40.51490 -73.88852 12427 ft 307 kts 167°
2026-05-08 01:10 40.49480 -73.87871 12215 ft 305 kts 167°
2026-05-08 01:11 40.47502 -73.86911 12005 ft 305 kts 167°
2026-05-08 01:11 40.45490 -73.85950 11794 ft 306 kts 166°
2026-05-08 01:11 40.43642 -73.84506 11569 ft 317 kts 142°
2026-05-08 01:11 40.42343 -73.82164 11358 ft 328 kts 117°
2026-05-08 01:12 40.41621 -73.79296 11138 ft 330 kts 108°
2026-05-08 01:12 40.41000 -73.76402 10920 ft 327 kts 107°
2026-05-08 01:12 40.40387 -73.73539 10698 ft 325 kts 107°
2026-05-08 01:12 40.39764 -73.70689 10476 ft 324 kts 107°
2026-05-08 01:13 40.39135 -73.67858 10255 ft 323 kts 107°
2026-05-08 01:13 40.38506 -73.65063 10041 ft 323 kts 107°
2026-05-08 01:13 40.37861 -73.62251 9814 ft 321 kts 107°
2026-05-08 01:13 40.37539 -73.59385 9581 ft 316 kts 84°
2026-05-08 01:14 40.38091 -73.56655 9339 ft 308 kts 58°
2026-05-08 01:14 40.39394 -73.54553 9103 ft 295 kts 33°
2026-05-08 01:14 40.41076 -73.53029 8883 ft 291 kts 27°
2026-05-08 01:14 40.42779 -73.51594 8655 ft 289 kts 27°
2026-05-08 01:15 40.44464 -73.50194 8427 ft 287 kts 27°
2026-05-08 01:15 40.46161 -73.48795 8202 ft 285 kts 27°
2026-05-08 01:15 40.47819 -73.47443 7978 ft 282 kts 27°
2026-05-08 01:15 40.49505 -73.46076 7616 ft 282 kts 27°
2026-05-08 01:16 40.51161 -73.44751 7327 ft 278 kts 27°
2026-05-08 01:16 40.52799 -73.43450 6875 ft 273 kts 27°
2026-05-08 01:16 40.54420 -73.42190 6347 ft 270 kts 27°
2026-05-08 01:16 40.56035 -73.40958 5821 ft 267 kts 25°
2026-05-08 01:17 40.57761 -73.40266 5255 ft 260 kts 359°
2026-05-08 01:17 40.59534 -73.40516 4705 ft 256 kts 348°
2026-05-08 01:17 40.61268 -73.40959 4210 ft 252 kts 347°
2026-05-08 01:17 40.62931 -73.41409 4013 ft 237 kts 347°
2026-05-08 01:18 40.64532 -73.41865 4005 ft 229 kts 341°
2026-05-08 01:18 40.65843 -73.42908 3968 ft 217 kts 319°
2026-05-08 01:18 40.66914 -73.44208 3736 ft 207 kts 317°
2026-05-08 01:18 40.67946 -73.45503 3298 ft 206 kts 317°
2026-05-08 01:19 40.68974 -73.46813 3053 ft 203 kts 317°
2026-05-08 01:19 40.69999 -73.48126 3008 ft 207 kts 317°
2026-05-08 01:19 40.71023 -73.49442 3001 ft 205 kts 317°
2026-05-08 01:19 40.72046 -73.50761 3001 ft 207 kts 317°
2026-05-08 01:20 40.73074 -73.52085 3000 ft 207 kts 316°
2026-05-08 01:20 40.73894 -73.53625 3001 ft 209 kts 299°
2026-05-08 01:20 40.74511 -73.55379 3000 ft 209 kts 297°
2026-05-08 01:20 40.75126 -73.57113 2994 ft 209 kts 297°
2026-05-08 01:21 40.75745 -73.58842 2723 ft 207 kts 297°
2026-05-08 01:21 40.76350 -73.60541 2396 ft 207 kts 297°
2026-05-08 01:21 40.76882 -73.62311 2084 ft 209 kts 282°
2026-05-08 01:21 40.76656 -73.64198 1994 ft 216 kts 245°
2026-05-08 01:22 40.75816 -73.65863 2000 ft 217 kts 238°
2026-05-08 01:22 40.74908 -73.67348 2004 ft 198 kts 225°
2026-05-08 01:22 40.73825 -73.68295 2023 ft 182 kts 212°
2026-05-08 01:22 40.72709 -73.69107 1886 ft 183 kts 213°
2026-05-08 01:23 40.71621 -73.69961 1650 ft 183 kts 213°
2026-05-08 01:23 40.70523 -73.70818 1408 ft 184 kts 213°
2026-05-08 01:23 40.69434 -73.71664 1161 ft 176 kts 213°
2026-05-08 01:23 40.68443 -73.72436 944 ft 153 kts 212°
2026-05-08 01:24 40.67552 -73.73132 750 ft 143 kts 212°
2026-05-08 01:24 40.66710 -73.73788 561 ft 137 kts 212°
2026-05-08 01:24 40.65897 -73.74421 373 ft 134 kts 211°
2026-05-08 01:24 40.65101 -73.75042 190 ft 133 kts 211°
2026-05-08 01:25 40.64307 -73.75659 34 ft 130 kts 210°
2026-05-08 01:25 40.63654 -73.76167 22 ft 87 kts 210°
2026-05-08 01:25 40.63218 -73.76504 20 ft 62 kts 210°
2026-05-08 01:25 40.62980 -73.76775 19 ft 30 kts 238°
2026-05-08 01:26 40.62939 -73.76987 19 ft 22 kts 296°
2026-05-08 01:26 40.62997 -73.77118 19 ft 15 kts 300°
2026-05-08 01:26 40.63057 -73.77256 19 ft 18 kts 299°
2026-05-08 01:26 40.63129 -73.77412 19 ft 21 kts 302°
2026-05-08 01:27 40.63213 -73.77587 19 ft 23 kts 302°
2026-05-08 01:27 40.63296 -73.77773 19 ft 13 kts 300°
2026-05-08 01:27 40.63364 -73.77818 19 ft 10 kts 28°
2026-05-08 01:27 40.63439 -73.77759 19 ft 14 kts 30°
2026-05-08 01:28 40.63505 -73.77737 21 ft 7 kts 321°
2026-05-08 01:28 40.63551 -73.77808 20 ft 12 kts 300°
2026-05-08 01:28 40.63612 -73.77884 21 ft 12 kts 346°
2026-05-08 01:28 40.63707 -73.77902 22 ft 15 kts 352°
2026-05-08 01:29 40.63823 -73.77921 22 ft 18 kts 352°
2026-05-08 01:29 40.63957 -73.77943 22 ft 20 kts 352°
2026-05-08 01:29 40.64037 -73.78007 22 ft 11 kts 261°
2026-05-08 01:29 40.64022 -73.78054 22 ft 6 kts 245°
2026-05-08 01:30 40.64013 -73.78079 22 ft 0 kts 248°